Location: *
(49.4547°N, 7.9131°E)
Time: 23:07:32
(UTC+00:00)

Cosmos 2237 Rocket - Pass Details

Date: 22 September 2019
Orbit: 833 x 852 km, 71.0° (Epoch: 20 October)

Event Time Altitude Azimuth Distance (km) Brightness Sun altitude
Rises 18:41:46 0° 329° (NNW) 3,427 6.1 -12.8°
Reaches altitude 10° 18:44:14 10° 327° (NNW) 2,488 5.4 -13.2°
Maximum altitude 18:49:53 64° 247° (WSW) 941 2.6 -14.1°
Drops below altitude 10° 18:55:30 10° 167° (SSE) 2,473 4.3 -14.9°
Enters shadow 18:57:13 - 165° (SSE) 3,123 4.8 -15.2°
